Weather History for KMLP - April, 2014

Change the Weather History Date:

Friday, April 18, 2014

  Actual Average (K3TH) Record (K3TH)
Temperature  
Mean Temperature 28 °F -  
Max Temperature 32 °F 55 °F 73 °F (1999)
Min Temperature 24 °F 35 °F 28 °F (1998)
Degree Days  
Heating Degree Days 37    
Moisture  
Dew Point 25 °F    
Average Humidity 93    
Maximum Humidity 100    
Minimum Humidity 78    
Precipitation  
Precipitation 0.29 in - - ()
Sea Level Pressure  
Sea Level Pressure 29.83 in    
Wind  
Wind Speed 10 mph (SW)    
Max Wind Speed 16 mph    
Max Gust Speed 32 mph    
Visibility 3 miles    
Events Fog , Rain , Snow    
Averages and records for this station are not official NWS values.
T = Trace of Precipitation, MM = Missing Value Source: NWS Daily Summary

Daily Weather History Graph

Daily Weather History Graph

Search for Another Location

Airport or City:

Trip Planner

Search our weather history database for the weather conditions in past years. The results will help you decide how hot, cold, wet, or windy it might be!

Date:

Astronomy

Apr. 18, 2014 Rise Set
Actual Time 5:48 AM PDT 7:36 PM PDT
Civil Twilight 5:15 AM PDT 8:09 PM PDT
Nautical Twilight 4:35 AM PDT 8:49 PM PDT
Astronomical Twilight 3:52 AM PDT 9:33 PM PDT
Moon 11:35 PM PDT (4/18) 8:05 AM PDT (4/18)
Length of Visible Light 14h 53m
Length of Day
13h 48m
Waning Gibbous, 86% of the Moon is Illuminated
Apr 18
Waning Gibbous
Apr 22
Last Quarter
Apr 28
New
May 6
First Quarter
May 14
Full

Hourly Weather History & Observations

Time (PDT) Temp. Windchill Dew Point Humidity Pressure Visibility Wind Dir Wind Speed Gust Speed Precip Events Conditions
12:53 AM 30.9 °F 25.2 °F 30.9 °F 100% 29.65 in 0.5 mi SW 5.8 mph - 0.03 in Fog , Snow Snow
1:53 AM 32.0 °F 24.8 °F 30.9 °F 96% 29.64 in 0.8 mi SSW 8.1 mph - 0.03 in Snow Light Snow
2:24 AM 30.2 °F 20.2 °F 30.2 °F 100% 29.72 in 1.5 mi SW 12.7 mph 27.6 mph 0.01 in Snow Light Snow
2:53 AM 30.9 °F 21.7 °F 30.9 °F 100% 29.63 in 1.0 mi SW 11.5 mph 29.9 mph 0.01 in Snow Light Snow
3:03 AM 30.2 °F 20.2 °F 30.2 °F 100% 29.72 in 0.8 mi SW 12.7 mph 20.7 mph 0.01 in Snow Light Snow
3:09 AM 30.2 °F 20.8 °F 30.2 °F 100% 29.72 in 1.5 mi SSW 11.5 mph 26.5 mph 0.01 in Snow Light Snow
3:14 AM 30.2 °F 19.3 °F 30.2 °F 100% 29.72 in 0.8 mi SSW 15.0 mph 26.5 mph 0.02 in Snow Light Snow
3:35 AM 30.2 °F 20.8 °F 30.2 °F 100% 29.72 in 1.5 mi SW 11.5 mph 27.6 mph 0.03 in Snow Light Snow
3:39 AM 30.2 °F 19.8 °F 28.4 °F 93% 29.73 in 3.0 mi SW 13.8 mph 27.6 mph 0.03 in Snow Light Snow
3:49 AM 30.2 °F 19.8 °F 28.4 °F 93% 29.73 in 2.0 mi SW 13.8 mph 29.9 mph 0.03 in Snow Light Snow
3:50 AM 30.2 °F 20.2 °F 28.4 °F 93% 29.73 in 1.5 mi SW 12.7 mph 29.9 mph 0.03 in Snow Light Snow
3:53 AM 30.0 °F 21.1 °F 28.9 °F 96% 29.64 in 0.8 mi SW 10.4 mph 29.9 mph 0.04 in Snow Light Snow
3:57 AM 30.2 °F 21.9 °F 28.4 °F 93% 29.73 in 0.2 mi SW 9.2 mph 25.3 mph 0.01 in Fog , Snow Snow
4:04 AM 30.2 °F 20.8 °F 28.4 °F 93% 29.72 in 0.5 mi SW 11.5 mph 32.2 mph 0.02 in Fog , Snow Snow
4:22 AM 28.4 °F 16.6 °F 28.4 °F 100% 29.73 in 1.8 mi SSW 16.1 mph 31.1 mph 0.02 in Snow Light Snow
4:28 AM 28.4 °F 18.0 °F 28.4 °F 100% 29.74 in 3.0 mi SW 12.7 mph 31.1 mph 0.02 in   Overcast
4:53 AM 28.0 °F 17.5 °F 26.1 °F 92% 29.67 in 10.0 mi SW 12.7 mph 28.8 mph 0.02 in   Overcast
5:00 AM 26.6 °F 16.2 °F 24.8 °F 93% 29.75 in 10.0 mi WSW 11.5 mph 31.1 mph N/A   Overcast
5:22 AM 26.6 °F 15.7 °F 24.8 °F 93% 29.75 in 10.0 mi WSW 12.7 mph 24.2 mph N/A   Overcast
5:33 AM 26.6 °F 15.7 °F 24.8 °F 93% 29.74 in 10.0 mi SW 12.7 mph 20.7 mph N/A   Mostly Cloudy
5:48 AM 26.6 °F 16.8 °F 24.8 °F 93% 29.75 in 10.0 mi SW 10.4 mph 24.2 mph N/A   Mostly Cloudy
5:53 AM 26.1 °F 16.8 °F 24.1 °F 92% 29.68 in 10.0 mi SW 9.2 mph 20.7 mph N/A   Mostly Cloudy
6:15 AM 26.6 °F 16.8 °F 24.8 °F 93% 29.75 in 2.0 mi SW 10.4 mph 26.5 mph 0.00 in Snow Light Snow
6:24 AM 26.6 °F 16.8 °F 24.8 °F 93% 29.76 in 6.0 mi SW 10.4 mph 28.8 mph 0.00 in   Mostly Cloudy
6:33 AM 26.6 °F 19.1 °F 24.8 °F 93% 29.76 in 2.0 mi SW 6.9 mph - 0.00 in Snow Light Snow
6:35 AM 26.6 °F 17.5 °F 24.8 °F 93% 29.76 in 1.0 mi SSW 9.2 mph - 0.01 in Snow Light Snow
6:42 AM 26.6 °F 16.8 °F 24.8 °F 93% 29.76 in 0.5 mi SW 10.4 mph 18.4 mph 0.01 in Fog , Snow Light Snow
6:53 AM 25.0 °F 17.1 °F 24.1 °F 96% 29.85 in 0.8 mi WSW 6.9 mph 19.6 mph 0.02 in Snow Light Snow
6:56 AM 24.8 °F 16.9 °F 24.8 °F 100% 29.78 in 1.5 mi SW 6.9 mph 18.4 mph 0.00 in Snow Light Snow
6:58 AM 24.8 °F 14.0 °F 23.0 °F 93% 29.78 in 3.0 mi SW 11.5 mph 23.0 mph 0.00 in Snow Light Snow
7:09 AM 24.8 °F 14.6 °F 21.2 °F 86% 29.78 in 7.0 mi WSW 10.4 mph 23.0 mph 0.00 in Snow Light Snow
7:17 AM 24.8 °F 14.6 °F 21.2 °F 86% 29.78 in 7.0 mi WSW 10.4 mph 19.6 mph 0.00 in Snow Light Snow
7:22 AM 24.8 °F 16.1 °F 21.2 °F 86% 29.78 in 2.5 mi SW 8.1 mph 18.4 mph 0.00 in Snow Light Snow
7:30 AM 24.8 °F 12.9 °F 23.0 °F 93% 29.78 in 1.5 mi SW 13.8 mph 21.9 mph 0.00 in Snow Light Snow
7:34 AM 24.8 °F 15.3 °F 23.0 °F 93% 29.78 in 2.0 mi SW 9.2 mph 21.9 mph 0.00 in Snow Light Snow
7:40 AM 24.8 °F 16.1 °F 24.8 °F 100% 29.78 in 1.8 mi SW 8.1 mph - 0.00 in Snow Light Snow
7:49 AM 24.8 °F 16.1 °F 24.8 °F 100% 29.78 in 1.0 mi WSW 8.1 mph 18.4 mph 0.00 in Snow Light Snow
7:53 AM 25.0 °F 15.5 °F 23.0 °F 92% 29.86 in 1.0 mi WSW 9.2 mph 20.7 mph 0.00 in Snow Light Snow
7:59 AM 24.8 °F 16.1 °F 24.8 °F 100% 29.78 in 0.5 mi WSW 8.1 mph 17.3 mph 0.01 in Fog , Snow Light Snow
8:07 AM 24.8 °F 15.3 °F 24.8 °F 100% 29.78 in 0.2 mi WSW 9.2 mph 20.7 mph 0.02 in Fog , Snow Snow
8:18 AM 24.8 °F 17.9 °F 23.0 °F 93% 29.78 in 1.0 mi Variable 5.8 mph - 0.02 in Snow Light Snow
8:21 AM 24.8 °F 17.9 °F 23.0 °F 93% 29.79 in 2.0 mi Variable 5.8 mph - 0.02 in Snow Light Snow
8:31 AM 24.8 °F 14.0 °F 23.0 °F 93% 29.79 in 2.5 mi WSW 11.5 mph 21.9 mph 0.02 in Snow Light Snow
8:35 AM 24.8 °F 15.3 °F 23.0 °F 93% 29.79 in 3.0 mi WSW 9.2 mph 20.7 mph 0.02 in Snow Light Snow
8:39 AM 24.8 °F 16.1 °F 23.0 °F 93% 29.79 in 1.5 mi West 8.1 mph 19.6 mph 0.02 in Snow Light Snow
8:44 AM 24.8 °F 15.3 °F 23.0 °F 93% 29.80 in 0.8 mi WSW 9.2 mph - 0.02 in Snow Light Snow
8:53 AM 25.0 °F 15.5 °F 23.0 °F 92% 29.86 in 0.5 mi SW 9.2 mph 21.9 mph 0.02 in Fog , Snow Light Snow
9:15 AM 24.8 °F 15.3 °F 23.0 °F 93% 29.80 in 1.2 mi SW 9.2 mph 17.3 mph 0.01 in Snow Light Snow
9:20 AM 24.8 °F 14.6 °F 23.0 °F 93% 29.80 in 2.0 mi SW 10.4 mph 26.5 mph 0.01 in Snow Light Snow
9:29 AM 24.8 °F 16.9 °F 21.2 °F 86% 29.80 in 1.2 mi Variable 6.9 mph 28.8 mph 0.02 in Snow Light Snow
9:39 AM 26.6 °F 16.8 °F 24.8 °F 93% 29.79 in 2.5 mi SW 10.4 mph 24.2 mph 0.02 in Snow Light Snow
9:43 AM 24.8 °F 14.6 °F 24.8 °F 100% 29.79 in 1.2 mi SW 10.4 mph 24.2 mph 0.02 in Snow Light Snow
9:51 AM 24.8 °F 13.4 °F 23.0 °F 93% 29.80 in 0.2 mi SW 12.7 mph 23.0 mph 0.02 in Fog , Snow Snow
9:52 AM 24.1 °F 14.4 °F 23.0 °F 96% 29.88 in 0.2 mi SW 9.2 mph 23.0 mph 0.02 in Fog , Snow Snow
10:01 AM 24.8 °F 16.1 °F 23.0 °F 93% 29.81 in 0.5 mi WSW 8.1 mph 29.9 mph 0.01 in Fog , Snow Light Snow
10:04 AM 24.8 °F 16.9 °F 23.0 °F 93% 29.81 in 0.2 mi Variable 6.9 mph 29.9 mph 0.01 in Fog , Snow Snow
10:15 AM 24.8 °F 17.9 °F 24.8 °F 100% 29.82 in 1.0 mi Variable 5.8 mph - 0.01 in Snow Light Snow
10:17 AM 24.8 °F 15.3 °F 24.8 °F 100% 29.82 in 2.0 mi SW 9.2 mph - 0.01 in Snow Light Snow
10:24 AM 24.8 °F 13.4 °F 23.0 °F 93% 29.82 in 8.0 mi WSW 12.7 mph 26.5 mph 0.01 in Snow Light Snow
10:34 AM 26.6 °F 19.1 °F 23.0 °F 86% 29.82 in 7.0 mi Variable 6.9 mph 26.5 mph 0.02 in Snow Light Snow
10:47 AM 24.8 °F 15.3 °F 24.8 °F 100% 29.82 in 1.5 mi SW 9.2 mph 20.7 mph 0.02 in Snow Light Snow
10:50 AM 24.8 °F 16.9 °F 24.8 °F 100% 29.82 in 0.8 mi SW 6.9 mph 19.6 mph 0.02 in Snow Light Snow
10:53 AM 26.1 °F 16.8 °F 25.0 °F 96% 29.90 in 0.5 mi SW 9.2 mph 19.6 mph 0.02 in Fog , Snow Snow
10:58 AM 24.8 °F 14.0 °F 24.8 °F 100% 29.83 in 0.2 mi SW 11.5 mph 21.9 mph 0.00 in Fog , Snow Snow
11:09 AM 26.6 °F 18.2 °F 24.8 °F 93% 29.83 in 0.2 mi SW 8.1 mph 19.6 mph 0.00 in Fog , Snow Light Snow
11:17 AM 24.8 °F 14.6 °F 24.8 °F 100% 29.84 in 0.8 mi SW 10.4 mph 19.6 mph 0.01 in Snow Light Snow
11:42 AM 24.8 °F 14.6 °F 24.8 °F 100% 29.84 in 0.5 mi WSW 10.4 mph 23.0 mph 0.02 in Fog , Snow Light Snow
11:51 AM 24.8 °F 14.0 °F 24.8 °F 100% 29.84 in 1.0 mi WSW 11.5 mph 23.0 mph 0.02 in Snow Light Snow
11:53 AM 26.1 °F 14.5 °F 24.1 °F 92% 29.92 in 1.2 mi SW 13.8 mph 23.0 mph 0.02 in Snow Light Snow
11:59 AM 24.8 °F 13.4 °F 23.0 °F 93% 29.85 in 2.0 mi WSW 12.7 mph 25.3 mph 0.00 in Snow Light Snow
12:05 PM 24.8 °F 13.4 °F 24.8 °F 100% 29.85 in 1.2 mi WSW 12.7 mph 25.3 mph 0.00 in Snow Light Snow
12:13 PM 24.8 °F 14.0 °F 23.0 °F 93% 29.85 in 0.5 mi WSW 11.5 mph 23.0 mph 0.00 in Fog , Snow Snow
12:35 PM 26.6 °F 18.2 °F 24.8 °F 93% 29.86 in 1.2 mi WSW 8.1 mph - 0.01 in Snow Light Snow
12:53 PM 27.0 °F 19.5 °F 25.0 °F 92% 29.94 in 1.0 mi Variable 6.9 mph - 0.01 in Snow Light Snow
12:56 PM 26.6 °F 20.0 °F 24.8 °F 93% 29.87 in 0.5 mi Variable 5.8 mph - 0.00 in Fog , Snow Snow
1:05 PM 26.6 °F 19.1 °F 24.8 °F 93% 29.87 in 0.2 mi Variable 6.9 mph - 0.02 in Fog , Snow Heavy Snow
1:20 PM 26.6 °F 18.2 °F 24.8 °F 93% 29.87 in 1.0 mi WSW 8.1 mph - 0.03 in Snow Light Snow
1:23 PM 26.6 °F 16.2 °F 24.8 °F 93% 29.87 in 1.5 mi WSW 11.5 mph 20.7 mph 0.03 in Snow Light Snow
1:34 PM 26.6 °F 18.2 °F 24.8 °F 93% 29.88 in 1.2 mi West 8.1 mph 27.6 mph 0.03 in Snow Light Snow
1:40 PM 26.6 °F 18.2 °F 24.8 °F 93% 29.89 in 0.2 mi West 8.1 mph 27.6 mph 0.04 in Fog , Snow Snow
1:49 PM 26.6 °F 15.7 °F 24.8 °F 93% 29.88 in 0.2 mi WSW 12.7 mph 23.0 mph 0.04 in Fog , Snow Snow
1:53 PM 26.1 °F 16.8 °F 24.1 °F 92% 29.96 in 0.2 mi WSW 9.2 mph 23.0 mph 0.05 in Fog , Snow Light Snow
1:57 PM 26.6 °F 17.5 °F 24.8 °F 93% 29.89 in 0.8 mi West 9.2 mph 23.0 mph 0.00 in Snow Light Snow
1:59 PM 26.6 °F 18.2 °F 24.8 °F 93% 29.89 in 2.5 mi West 8.1 mph 18.4 mph 0.00 in Snow Light Snow
2:06 PM 28.4 °F 20.4 °F 24.8 °F 86% 29.89 in 7.0 mi WSW 8.1 mph 19.6 mph 0.00 in Snow Light Snow
2:14 PM 26.6 °F 18.2 °F 24.8 °F 93% 29.89 in 3.0 mi WSW 8.1 mph 20.7 mph 0.00 in Snow Light Snow
2:21 PM 28.4 °F 19.7 °F 24.8 °F 86% 29.89 in 3.0 mi WSW 9.2 mph 23.0 mph 0.00 in Snow Light Snow
2:32 PM 28.4 °F 18.5 °F 24.8 °F 86% 29.90 in 8.0 mi WSW 11.5 mph 25.3 mph 0.00 in   Overcast
2:36 PM 28.4 °F 20.4 °F 23.0 °F 80% 29.90 in 8.0 mi West 8.1 mph 25.3 mph 0.00 in Rain Light Freezing Rain
2:53 PM 28.0 °F 18.1 °F 24.1 °F 85% 29.84 in 10.0 mi WSW 11.5 mph 23.0 mph 0.00 in Rain Light Freezing Rain
3:10 PM 28.4 °F 18.5 °F 23.0 °F 80% 29.91 in 10.0 mi WSW 11.5 mph 21.9 mph 0.00 in   Mostly Cloudy
3:17 PM 28.4 °F 18.0 °F 23.0 °F 80% 29.91 in 9.0 mi WSW 12.7 mph 24.2 mph 0.00 in   Mostly Cloudy
3:41 PM 28.4 °F 21.2 °F 24.8 °F 86% 29.92 in 1.8 mi Variable 6.9 mph 23.0 mph 0.00 in Snow Light Snow
3:49 PM 26.6 °F 20.0 °F 24.8 °F 93% 29.92 in 0.8 mi Variable 5.8 mph - 0.00 in Snow Light Snow
3:53 PM 27.0 °F 17.3 °F 25.0 °F 92% 30.00 in 0.5 mi WSW 10.4 mph 19.6 mph 0.00 in Fog , Snow Snow
4:02 PM 28.4 °F 20.4 °F 24.8 °F 86% 29.93 in 1.5 mi WSW 8.1 mph 19.6 mph 0.00 in Snow Light Snow
4:04 PM 28.4 °F 19.1 °F 24.8 °F 86% 29.93 in 4.0 mi WSW 10.4 mph 19.6 mph 0.00 in Snow Light Snow
4:09 PM 28.4 °F 20.4 °F 24.8 °F 86% 29.93 in 9.0 mi WSW 8.1 mph 20.7 mph 0.00 in   Overcast
4:32 PM 28.4 °F 18.0 °F 24.8 °F 86% 29.93 in 10.0 mi WSW 12.7 mph 21.9 mph 0.00 in   Overcast
5:53 PM 28.0 °F 21.7 °F 24.1 °F 85% 30.05 in 10.0 mi SW 5.8 mph - N/A   Mostly Cloudy
6:00 PM 28.4 °F 22.2 °F 24.8 °F 86% 29.95 in 10.0 mi Variable 5.8 mph 16.1 mph N/A   Mostly Cloudy
6:53 PM 28.0 °F 20.8 °F 24.1 °F 85% 30.05 in 10.0 mi Variable 6.9 mph - N/A   Mostly Cloudy
7:05 PM 28.4 °F 19.7 °F 23.0 °F 80% 29.95 in 10.0 mi SW 9.2 mph - N/A   Scattered Clouds
8:53 PM 27.0 °F 21.6 °F 21.0 °F 78% 30.08 in 10.0 mi NW 4.6 mph - N/A   Clear
9:53 PM 25.0 °F 17.1 °F 21.9 °F 88% 30.09 in 10.0 mi South 6.9 mph - N/A   Clear
10:53 PM 25.0 °F 18.1 °F 21.9 °F 88% 30.06 in 10.0 mi SSW 5.8 mph - N/A   Clear
11:53 PM 26.1 °F 18.4 °F 21.9 °F 84% 30.06 in 10.0 mi South 6.9 mph - N/A   Clear